Date String (YYYY-MM-DD hh:mm:ss) UTC,Instrument flags,Ambient pressure (hPa),Sample flow (lpm),Bypass flow (lpm),Sample temperature (°C),Ambient temperature (°C),ASC tube jacket temperature (°C),LED temperature (°C),Box temperature (°C),Sample RH (%),Span deviation,Mass concentration (μg/m³),Mass concentration (μg/m³),Mass concentration (μg/m³)
DateTimeUTC,F1_M11,P_M11,Q1_M11,Q2_M11,T1_M11,T2_M11,T3_M11,T4_M11,T5_M11,U1_M11,ZSPAN_M11,X0_M11,X2_M11,X1_M11
2021-12-02 17:00:00,,0828.5,4.99,0.00,30.5,27.8,00.0,39.6,31.9,08.4,0000.0,0009.42,0001.64,0000.38
2021-12-02 17:01:00,,0829.0,5.01,0.00,30.4,28.2,00.0,39.6,32.0,08.7,0000.0,0009.61,0001.65,0000.39
2021-12-02 17:02:00,,0828.8,4.99,0.00,30.4,28.5,00.0,39.6,32.0,08.6,0000.0,0010.94,0001.68,0000.40
2021-12-02 17:03:00,,0828.8,5.01,0.00,30.4,28.7,00.0,39.5,32.1,08.0,0000.0,0011.97,0001.69,0000.41
2021-12-02 17:04:00,,0829.0,4.98,0.00,30.4,28.9,00.0,39.5,32.1,08.6,0000.0,0012.01,0001.79,0000.43
2021-12-02 17:05:00,,0828.9,5.01,0.00,30.5,29.1,00.0,39.5,32.1,08.5,0000.0,0012.24,0001.87,0000.44
2021-12-02 17:06:00,,0828.8,4.99,0.00,30.5,29.2,00.0,39.5,32.2,08.6,0000.0,0013.04,0002.01,0000.45
2021-12-02 17:07:00,,0828.9,5.01,0.00,30.5,29.3,00.0,39.5,32.2,08.6,0000.0,0013.63,0002.06,0000.45
2021-12-02 17:08:00,,0828.9,4.99,0.00,30.5,29.4,00.0,39.5,32.2,08.8,0000.0,0013.81,0002.16,0000.45
2021-12-02 17:09:00,,0829.0,5.01,0.00,30.5,29.5,00.0,39.5,32.3,08.7,0000.0,0014.39,0002.17,0000.46
2021-12-02 17:10:00,,0829.0,5.00,0.00,30.6,29.5,00.0,39.5,32.3,08.9,0000.0,0014.22,0002.13,0000.47
2021-12-02 17:11:00,,0828.8,5.00,0.00,30.6,29.6,00.0,39.5,32.3,08.7,0000.0,0014.19,0002.09,0000.47
2021-12-02 17:12:00,,0829.0,5.00,0.00,30.6,29.6,00.0,39.5,32.3,08.7,0000.0,0014.03,0002.09,0000.47
2021-12-02 17:13:00,,0828.9,5.00,0.00,30.6,29.7,00.0,39.6,32.4,08.5,0000.0,0013.41,0002.26,0000.48
2021-12-02 17:14:00,,0828.8,5.01,0.00,30.7,29.7,00.0,39.6,32.4,08.4,0000.0,0013.55,0002.38,0000.49
2021-12-02 17:15:00,,0828.9,4.99,0.00,30.7,29.7,00.0,39.6,32.4,08.3,0000.0,0013.98,0002.37,0000.49
2021-12-02 17:16:00,,0829.0,5.01,0.00,30.7,29.8,00.0,39.6,32.4,08.4,0000.0,0013.57,0002.28,0000.49
2021-12-02 17:17:00,,0829.1,4.99,0.00,30.7,29.8,00.0,39.6,32.4,08.4,0000.0,0012.03,0002.19,0000.48
2021-12-02 17:18:00,,0829.0,5.01,0.00,30.7,29.8,00.0,39.6,32.4,08.5,0000.0,0011.17,0002.17,0000.48
2021-12-02 17:19:00,,0829.0,4.98,0.00,30.7,29.9,00.0,39.6,32.5,08.6,0000.0,0011.02,0002.08,0000.49
2021-12-02 17:20:00,,0828.9,5.00,0.00,30.8,29.9,00.0,39.7,32.5,08.6,0000.0,0011.14,0002.01,0000.48
2021-12-02 17:21:00,,0828.4,5.00,0.00,30.8,29.9,00.0,39.7,32.5,08.5,0000.0,0012.37,0002.07,0000.48
2021-12-02 17:22:00,,0828.6,4.99,0.00,30.8,28.8,00.0,39.7,32.3,08.3,0000.0,0013.29,0002.08,0000.49
2021-12-02 17:23:00,,0828.4,5.01,0.00,30.6,26.9,00.0,39.6,31.9,08.2,0000.0,0013.25,0002.13,0000.49
2021-12-02 17:24:00,,0828.6,5.00,0.00,30.5,26.6,00.0,39.6,31.7,08.2,0000.0,0013.98,0002.04,0000.49
2021-12-02 17:25:00,,0828.6,4.99,0.00,30.4,27.0,00.0,39.6,31.7,08.4,0000.0,0012.70,0001.91,0000.47
2021-12-02 17:26:00,,0828.8,5.00,0.00,30.3,27.5,00.0,39.5,31.8,08.5,0000.0,0012.06,0001.88,0000.47
2021-12-02 17:27:00,,0828.8,4.99,0.00,30.3,27.9,00.0,39.4,31.8,08.7,0000.0,0012.33,0001.89,0000.49
2021-12-02 17:28:00,,0828.8,5.01,0.00,30.3,28.2,00.0,39.4,31.9,08.7,0000.0,0013.58,0001.99,0000.51
2021-12-02 17:29:00,,0828.6,5.00,0.00,30.3,28.4,00.0,39.4,31.9,08.7,0000.0,0013.95,0002.02,0000.52
2021-12-02 17:30:00,,0828.9,4.99,0.00,30.3,28.7,00.0,39.4,32.0,08.7,0000.0,0013.91,0002.02,0000.53
2021-12-02 17:31:00,,0828.7,5.01,0.00,30.3,28.8,00.0,39.4,32.0,08.7,0000.0,0013.39,0002.06,0000.55
2021-12-02 17:32:00,,0828.4,4.99,0.00,30.3,28.9,00.0,39.4,32.0,08.6,0000.0,0012.81,0002.01,0000.58
2021-12-02 17:33:00,,0828.5,5.02,0.00,30.4,29.0,00.0,39.4,32.0,08.5,0000.0,0011.89,0001.96,0000.60
2021-12-02 17:34:00,,0828.5,5.01,0.00,30.4,29.1,00.0,39.4,32.0,08.6,0000.0,0011.75,0001.90,0000.62
2021-12-02 17:35:00,,0828.5,5.00,0.00,30.4,29.2,00.0,39.4,32.1,08.7,0000.0,0010.92,0002.02,0000.65
2021-12-02 17:36:00,,0828.5,5.00,0.00,30.4,29.3,00.0,39.4,32.1,08.5,0000.0,0011.79,0002.25,0000.69
2021-12-02 17:37:00,,0828.5,4.99,0.00,30.4,29.4,00.0,39.4,32.1,08.3,0000.0,0012.35,0002.47,0000.72
2021-12-02 17:38:00,,0828.5,5.01,0.00,30.4,29.4,00.0,39.4,32.2,08.2,0000.0,0012.05,0002.52,0000.73
2021-12-02 17:39:00,,0828.4,5.00,0.00,30.5,29.5,00.0,39.4,32.2,08.0,0000.0,0010.91,0002.47,0000.73
2021-12-02 17:40:00,,0828.4,5.01,0.00,30.5,29.5,00.0,39.4,32.2,07.9,0000.0,0010.35,0002.42,0000.74
2021-12-02 17:41:00,,0828.4,5.01,0.00,30.5,29.6,00.0,39.4,32.2,07.9,0000.0,0010.73,0002.46,0000.74
2021-12-02 17:42:00,,0828.4,4.99,0.00,30.5,29.6,00.0,39.4,32.3,08.0,0000.0,0011.72,0002.48,0000.75
2021-12-02 17:43:00,,0828.4,5.02,0.00,30.6,29.7,00.0,39.5,32.3,08.2,0000.0,0011.72,0002.66,0000.77
2021-12-02 17:44:00,,0828.4,5.00,0.00,30.6,29.7,00.0,39.5,32.3,08.1,0000.0,0012.25,0002.90,0000.79
2021-12-02 17:45:00,,0828.4,5.00,0.00,30.6,29.7,00.0,39.5,32.4,07.7,0000.0,0012.59,0003.07,0000.80
2021-12-02 17:46:00,,0828.4,5.00,0.00,30.6,29.7,00.0,39.5,32.4,08.0,0000.0,0014.00,0003.01,0000.81
2021-12-02 17:47:00,,0828.4,5.01,0.00,30.7,29.8,00.0,39.5,32.4,07.9,0000.0,0013.43,0002.83,0000.82
2021-12-02 17:48:00,,0828.4,5.00,0.00,30.7,29.8,00.0,39.6,32.4,08.0,0000.0,0013.96,0002.71,0000.83
2021-12-02 17:49:00,,0828.4,5.00,0.00,30.7,29.9,00.0,39.6,32.5,08.0,0000.0,0014.12,0002.72,0000.86
2021-12-02 17:50:00,,0828.4,4.99,0.00,30.7,29.9,00.0,39.6,32.5,08.2,0000.0,0014.35,0002.85,0000.92
2021-12-02 17:51:00,,0828.4,5.00,0.00,30.8,29.9,00.0,39.6,32.5,08.5,0000.0,0015.91,0003.04,0000.97
2021-12-02 17:52:00,,0828.4,5.00,0.00,30.8,30.0,00.0,39.7,32.5,08.7,0000.0,0016.78,0003.24,0001.03
2021-12-02 17:53:00,,0828.3,5.00,0.00,30.8,29.6,00.0,39.7,32.5,08.7,0000.0,0016.45,0003.36,0001.10
2021-12-02 17:54:00,,0828.3,5.00,0.00,30.7,27.6,00.0,39.6,32.1,08.6,0000.0,0016.51,0003.43,0001.16
2021-12-02 17:55:00,,0828.2,5.00,0.00,30.6,26.4,00.0,39.6,31.8,08.8,0000.0,0016.29,0003.45,0001.21
2021-12-02 17:56:00,,0828.2,5.00,0.00,30.5,26.7,00.0,39.6,31.8,08.9,0000.0,0016.43,0003.51,0001.27
2021-12-02 17:57:00,,0828.2,5.00,0.00,30.4,27.2,00.0,39.5,31.8,08.9,0000.0,0016.07,0003.63,0001.35
2021-12-02 17:58:00,,0828.2,5.00,0.00,30.4,27.6,00.0,39.5,31.8,09.0,0000.0,0016.72,0003.75,0001.43
2021-12-02 17:59:00,,0828.2,5.00,0.00,30.3,28.1,00.0,39.4,31.9,09.1,0000.0,0016.53,0003.85,0001.51
